Massena, NY

12:57 AM EST on December 06, 2019 (GMT -0500)
Massena International-Richards

Weather History for KMSS - October, 2019

Change the Weather History Date:

Saturday, October 12, 2019

  Actual Average Record
Temperature  
Mean Temperature 49 °F 48 °F  
Max Temperature 62 °F 58 °F 78 °F (1995)
Min Temperature 36 °F 38 °F 21 °F (1987)
Degree Days  
Heating Degree Days 16 17  
Month to date heating degree days 183 184  
Since 1 July heating degree days 398 484  
Cooling Degree Days 0 0  
Month to date cooling degree days 0 0  
Year to date cooling degree days 398 361  
Moisture  
Dew Point 46 °F    
Average Humidity 73    
Maximum Humidity 93    
Minimum Humidity 53    
Precipitation  
Precipitation 0.07 in 0.10 in 0.54 in (1970)
Month to date precipitation 1.35 1.33  
Year to date precipitation 25.06 27.52  
Sea Level Pressure  
Sea Level Pressure 29.98 in    
Wind  
Wind Speed 5 mph (South)    
Max Wind Speed 15 mph    
Max Gust Speed 20 mph    
Visibility 9 miles    
Events Rain    
T = Trace of Precipitation, MM = Missing Value Source: NWS Daily Summary

Daily Weather History Graph

Daily Weather History Graph

Search for Another Location

Airport or City:

Astronomy

Oct. 12, 2019 Rise Set
Actual Time 7:10 AM EDT 6:20 PM EDT
Civil Twilight 6:41 AM EDT 6:49 PM EDT
Nautical Twilight 6:07 AM EDT 7:23 PM EDT
Astronomical Twilight 5:33 AM EDT 7:57 PM EDT
Moon 6:20 PM EDT (10/12) 5:39 AM EDT (10/12)
Length of Visible Light 12h 08m
Length of Day
11h 09m
Waxing Gibbous, 99% of the Moon is Illuminated
Oct 12
Waxing Gibbous
Oct 13
Full
Oct 21
Last Quarter
Oct 27
New
Nov 4
First Quarter

Hourly Weather History & Observations

Time (EDT) Temp. Dew Point Humidity Pressure Visibility Wind Dir Wind Speed Gust Speed Precip Events Conditions
12:53 AM 46.9 °F 41.0 °F 80% 30.10 in 10.0 mi NE 8.1 mph - N/A   Clear
1:53 AM 48.0 °F 41.0 °F 77% 30.07 in 10.0 mi East 4.6 mph - N/A   Clear
2:53 AM 42.1 °F 37.9 °F 85% 30.06 in 10.0 mi Calm Calm - N/A   Clear
3:53 AM 39.9 °F 37.0 °F 89% 30.03 in 10.0 mi Calm Calm - N/A   Clear
4:53 AM 37.9 °F 36.0 °F 93% 30.02 in 10.0 mi Calm Calm - N/A   Clear
5:53 AM 37.9 °F 35.1 °F 89% 30.01 in 10.0 mi Calm Calm - N/A   Clear
6:53 AM 37.0 °F 35.1 °F 93% 30.01 in 10.0 mi Calm Calm - N/A   Clear
7:53 AM 41.0 °F 37.9 °F 89% 30.01 in 10.0 mi Calm Calm - N/A   Clear
8:53 AM 48.9 °F 41.0 °F 74% 30.01 in 10.0 mi East 4.6 mph - N/A   Clear
9:53 AM 52.0 °F 41.0 °F 66% 29.99 in 10.0 mi East 8.1 mph - N/A   Clear
10:53 AM 55.9 °F 43.0 °F 62% 29.96 in 10.0 mi NE 8.1 mph - N/A   Clear
11:53 AM 57.9 °F 44.1 °F 60% 29.96 in 10.0 mi NNE 6.9 mph - N/A   Clear
12:53 PM 61.0 °F 44.1 °F 54% 29.94 in 10.0 mi NE 5.8 mph - N/A   Clear
1:53 PM 62.1 °F 45.0 °F 53% 29.93 in 10.0 mi NE 4.6 mph - N/A   Mostly Cloudy
2:53 PM 57.0 °F 50.0 °F 77% 29.94 in 7.0 mi East 3.5 mph - 0.05 in Rain Light Rain
3:53 PM 55.9 °F 51.1 °F 84% 29.94 in 10.0 mi Calm Calm - 0.00 in Rain Light Rain
4:53 PM 55.9 °F 52.0 °F 87% 29.94 in 10.0 mi Calm Calm - 0.01 in   Overcast
5:23 PM 55.9 °F 52.0 °F 87% 29.94 in 9.0 mi SW 9.2 mph - N/A   Overcast
5:50 PM 55.4 °F 53.6 °F 94% 29.94 in 4.0 mi South 5.8 mph - 0.01 in Rain Light Rain
5:53 PM 55.0 °F 52.0 °F 89% 29.95 in 5.0 mi South 8.1 mph - 0.01 in   Overcast
6:27 PM 54.0 °F 52.0 °F 93% 29.94 in 7.0 mi South 6.9 mph - N/A   Overcast
6:53 PM 55.0 °F 52.0 °F 89% 29.95 in 8.0 mi South 8.1 mph - N/A   Overcast
7:19 PM 55.0 °F 52.0 °F 89% 29.95 in 10.0 mi SSW 10.4 mph - N/A   Overcast
7:53 PM 55.0 °F 52.0 °F 89% 29.97 in 10.0 mi SSW 11.5 mph - N/A   Overcast
8:04 PM 55.0 °F 51.1 °F 86% 29.96 in 10.0 mi SW 11.5 mph - N/A   Overcast
8:20 PM 55.0 °F 51.1 °F 86% 29.96 in 10.0 mi SW 10.4 mph - N/A   Overcast
8:37 PM 55.0 °F 50.0 °F 83% 29.97 in 10.0 mi SW 11.5 mph - N/A   Overcast
8:53 PM 54.0 °F 50.0 °F 86% 29.99 in 10.0 mi SW 13.8 mph - N/A   Overcast
9:04 PM 54.0 °F 48.9 °F 83% 29.98 in 10.0 mi SW 13.8 mph - N/A   Overcast
9:53 PM 51.1 °F 46.9 °F 86% 30.01 in 10.0 mi SW 10.4 mph - N/A   Partly Cloudy
10:53 PM 48.9 °F 45.0 °F 86% 30.02 in 10.0 mi SW 8.1 mph - N/A   Scattered Clouds
11:53 PM 46.9 °F 44.1 °F 90% 30.03 in 10.0 mi SSW 8.1 mph - N/A   Scattered Clouds